Date String (YYYY-MM-DD hh:mm:ss) UTC,Instrument flags,Ambient pressure (hPa),Sample flow (lpm),Bypass flow (lpm),Sample temperature (°C),Ambient temperature (°C),ASC tube jacket temperature (°C),LED temperature (°C),Box temperature (°C),Sample RH (%),Span deviation,Mass concentration (μg/m³),Mass concentration (μg/m³),Mass concentration (μg/m³)
DateTimeUTC,F1_M11,P_M11,Q1_M11,Q2_M11,T1_M11,T2_M11,T3_M11,T4_M11,T5_M11,U1_M11,ZSPAN_M11,X0_M11,X2_M11,X1_M11
2021-12-05 17:00:00,,0817.8,5.02,0.00,24.8,24.2,00.0,33.7,26.7,06.9,0000.0,0005.49,0001.07,0000.38
2021-12-05 17:01:00,,0817.6,5.01,0.00,24.9,24.2,00.0,33.8,26.7,06.7,0000.0,0005.60,0001.08,0000.38
2021-12-05 17:02:00,,0817.6,5.00,0.00,24.9,24.2,00.0,33.8,26.7,06.4,0000.0,0004.45,0001.07,0000.38
2021-12-05 17:03:00,,0817.7,5.00,0.00,24.9,24.2,00.0,33.8,26.7,06.3,0000.0,0004.27,0001.06,0000.39
2021-12-05 17:04:00,,0817.6,4.99,0.00,24.9,24.2,00.0,33.8,26.7,06.4,0000.0,0004.16,0001.04,0000.39
2021-12-05 17:05:00,,0817.8,5.01,0.00,24.9,24.2,00.0,33.8,26.7,06.5,0000.0,0003.99,0001.02,0000.39
2021-12-05 17:06:00,,0817.8,5.00,0.00,24.9,24.2,00.0,33.8,26.7,06.5,0000.0,0003.95,0001.01,0000.39
2021-12-05 17:07:00,,0817.9,5.00,0.00,25.0,24.2,00.0,33.8,26.8,06.5,0000.0,0003.92,0000.99,0000.39
2021-12-05 17:08:00,,0818.0,5.01,0.00,25.0,24.3,00.0,33.9,26.8,06.5,0000.0,0003.64,0000.98,0000.39
2021-12-05 17:09:00,,0817.9,5.00,0.00,25.0,24.3,00.0,33.9,26.8,06.5,0000.0,0003.52,0000.98,0000.39
2021-12-05 17:10:00,,0817.5,5.00,0.00,25.0,24.3,00.0,33.9,26.9,06.6,0000.0,0003.76,0000.98,0000.39
2021-12-05 17:11:00,,0817.7,5.01,0.00,25.0,24.4,00.0,33.9,26.9,06.6,0000.0,0003.64,0000.97,0000.40
2021-12-05 17:12:00,,0817.8,5.01,0.00,25.1,24.4,00.0,33.9,26.9,06.5,0000.0,0004.29,0001.03,0000.39
2021-12-05 17:13:00,,0817.9,5.00,0.00,25.1,24.4,00.0,33.9,26.9,06.3,0000.0,0004.89,0001.08,0000.39
2021-12-05 17:14:00,,0817.9,5.01,0.00,25.1,24.4,00.0,33.9,26.9,06.4,0000.0,0006.53,0001.13,0000.39
2021-12-05 17:15:00,,0817.8,5.00,0.00,25.1,24.4,00.0,34.0,26.9,06.4,0000.0,0006.42,0001.11,0000.39
2021-12-05 17:16:00,,0817.7,4.99,0.00,25.1,24.5,00.0,34.0,26.9,06.3,0000.0,0006.49,0001.10,0000.39
2021-12-05 17:17:00,,0817.8,5.01,0.00,25.1,24.5,00.0,34.0,27.0,05.8,0000.0,0006.67,0001.12,0000.39
2021-12-05 17:18:00,,0817.7,5.00,0.00,25.1,24.5,00.0,34.0,27.0,05.7,0000.0,0006.91,0001.16,0000.39
2021-12-05 17:19:00,,0817.7,5.01,0.00,25.2,24.5,00.0,34.0,27.0,06.1,0000.0,0007.67,0001.18,0000.39
2021-12-05 17:20:00,,0817.6,5.00,0.00,25.2,24.5,00.0,34.0,27.0,06.1,0000.0,0008.27,0001.20,0000.40
2021-12-05 17:21:00,,0817.9,4.99,0.00,25.2,24.5,00.0,34.1,27.0,06.1,0000.0,0008.17,0001.22,0000.40
2021-12-05 17:22:00,,0818.0,5.01,0.00,25.2,24.5,00.0,34.1,27.0,06.1,0000.0,0008.53,0001.30,0000.41
2021-12-05 17:23:00,,0818.3,5.00,0.00,25.2,24.5,00.0,34.1,27.0,05.9,0000.0,0008.18,0001.25,0000.42
2021-12-05 17:24:00,,0818.4,4.99,0.00,25.2,24.5,00.0,34.1,27.0,05.8,0000.0,0007.53,0001.18,0000.42
2021-12-05 17:25:00,,0818.2,5.00,0.00,25.2,24.5,00.0,34.1,26.9,06.0,0000.0,0006.25,0001.11,0000.42
2021-12-05 17:26:00,,0818.0,5.00,0.00,25.2,24.5,00.0,34.1,27.0,06.1,0000.0,0006.69,0001.14,0000.43
2021-12-05 17:27:00,,0818.1,5.01,0.00,25.2,24.5,00.0,34.1,27.0,06.0,0000.0,0007.98,0001.12,0000.43
2021-12-05 17:28:00,,0818.2,4.99,0.00,25.2,24.5,00.0,34.1,27.0,05.7,0000.0,0008.91,0001.12,0000.44
2021-12-05 17:29:00,,0818.1,5.00,0.00,25.3,24.5,00.0,34.2,27.1,05.7,0000.0,0009.08,0001.06,0000.44
2021-12-05 17:30:00,,0818.0,5.00,0.00,25.3,24.5,00.0,34.2,27.1,05.8,0000.0,0008.56,0001.02,0000.43
2021-12-05 17:31:00,,0818.1,5.01,0.00,25.3,24.6,00.0,34.2,27.1,05.9,0000.0,0008.65,0001.07,0000.44
2021-12-05 17:32:00,,0818.1,4.99,0.00,25.3,24.6,00.0,34.2,27.1,05.8,0000.0,0009.33,0001.10,0000.45
2021-12-05 17:33:00,,0818.3,5.01,0.00,25.3,24.5,00.0,34.2,27.1,05.8,0000.0,0008.86,0001.00,0000.44
2021-12-05 17:34:00,,0818.2,5.01,0.00,25.3,24.5,00.0,34.2,27.1,05.8,0000.0,0008.58,0000.98,0000.44
2021-12-05 17:35:00,,0818.2,4.99,0.00,25.3,24.5,00.0,34.2,27.1,05.9,0000.0,0008.70,0001.02,0000.44
2021-12-05 17:36:00,,0818.2,5.00,0.00,25.4,24.6,00.0,34.2,27.2,05.9,0000.0,0009.50,0001.08,0000.45
2021-12-05 17:37:00,,0818.2,5.01,0.00,25.4,24.6,00.0,34.3,27.2,06.0,0000.0,0010.15,0001.04,0000.44
2021-12-05 17:38:00,,0818.2,4.99,0.00,25.4,24.6,00.0,34.3,27.2,06.1,0000.0,0009.28,0001.06,0000.44
2021-12-05 17:39:00,,0818.2,5.00,0.00,25.4,24.7,00.0,34.3,27.2,06.1,0000.0,0009.13,0001.09,0000.44
2021-12-05 17:40:00,,0818.3,5.01,0.00,25.4,24.7,00.0,34.3,27.3,06.1,0000.0,0009.93,0001.20,0000.44
2021-12-05 17:41:00,,0818.3,4.99,0.00,25.4,24.7,00.0,34.3,27.3,06.1,0000.0,0010.87,0001.29,0000.45
2021-12-05 17:42:00,,0818.2,5.00,0.00,25.4,24.7,00.0,34.3,27.2,06.3,0000.0,0010.21,0001.22,0000.44
2021-12-05 17:43:00,,0818.3,5.00,0.00,25.5,24.7,00.0,34.3,27.3,06.5,0000.0,0009.65,0001.22,0000.44
2021-12-05 17:44:00,,0818.4,5.02,0.00,25.5,24.7,00.0,34.4,27.3,06.4,0000.0,0009.85,0001.27,0000.44
2021-12-05 17:45:00,,0818.5,4.99,0.00,25.5,24.6,00.0,34.4,27.3,06.1,0000.0,0010.08,0001.33,0000.44
2021-12-05 17:46:00,,0818.4,5.01,0.00,25.5,24.6,00.0,34.4,27.3,05.9,0000.0,0010.47,0001.38,0000.45
2021-12-05 17:47:00,,0818.4,4.99,0.00,25.5,24.6,00.0,34.4,27.3,05.8,0000.0,0010.62,0001.35,0000.43
2021-12-05 17:48:00,,0818.2,5.00,0.00,25.5,24.7,00.0,34.4,27.3,06.0,0000.0,0010.54,0001.36,0000.44
2021-12-05 17:49:00,,0818.3,5.00,0.00,25.5,24.7,00.0,34.4,27.3,06.1,0000.0,0010.34,0001.35,0000.44
2021-12-05 17:50:00,,0818.4,4.99,0.00,25.5,24.7,00.0,34.4,27.3,06.2,0000.0,0009.45,0001.30,0000.44
2021-12-05 17:51:00,,0818.2,5.01,0.00,25.5,24.7,00.0,34.4,27.3,06.3,0000.0,0008.60,0001.28,0000.43
2021-12-05 17:52:00,,0818.2,5.00,0.00,25.5,24.7,00.0,34.5,27.2,06.1,0000.0,0007.50,0001.23,0000.43
2021-12-05 17:53:00,,0818.1,5.00,0.00,25.5,24.7,00.0,34.5,27.3,06.1,0000.0,0008.20,0001.28,0000.43
2021-12-05 17:54:00,,0818.3,4.99,0.00,25.5,24.7,00.0,34.5,27.3,06.1,0000.0,0008.48,0001.27,0000.44
2021-12-05 17:55:00,,0818.4,5.01,0.00,25.5,24.7,00.0,34.5,27.3,06.2,0000.0,0008.65,0001.27,0000.44
2021-12-05 17:56:00,,0818.4,5.00,0.00,25.5,24.7,00.0,34.5,27.3,06.2,0000.0,0008.76,0001.27,0000.44
2021-12-05 17:57:00,,0817.9,5.00,0.00,25.5,24.7,00.0,34.5,27.3,06.3,0000.0,0008.60,0001.17,0000.43
2021-12-05 17:58:00,,0818.3,4.99,0.00,25.6,24.8,00.0,34.5,27.3,06.4,0000.0,0007.89,0001.19,0000.44
2021-12-05 17:59:00,,0818.4,5.01,0.00,25.6,24.8,00.0,34.5,27.3,06.4,0000.0,0007.73,0001.22,0000.45
